Location: Les Jeannots
(43.2262°N, 5.5774°E)
Time: 07:49:25
(UTC+00:00)

Genesis I - Pass Details

Date: 05 July 2020
Orbit: 509 x 513 km, 64.5° (Epoch: 04 August)

Event Time Altitude Azimuth Distance (km) Brightness Sun altitude
Exits shadow 22:18:35 62° 86° (E) 580 3.2 -21.3°
Drops below altitude 10° 22:22:05 10° 39° (NE) 1,738 6.2 -21.6°
Sets 22:24:16 0° 37° (NE) 2,627 7.3 -21.7°
